Address 0x860ea4f47bf3917549cf558b0173ee0898480afe

 
Ad
Ad
Txn Hash Method
Block
From
To
Value [Txn Fee]
0x721c9e43c74a9d70e31d2b74d8860084b56bd543034284ae9153038a56ca4b83Execute Meta Tra...204772222021-10-22 5:43:3748 mins ago0x860ea4f47bf3917549cf558b0173ee0898480afeOUT 0x89aac1f5ccdd54dd8a09e5c858f19a665e4fa32b0 MATIC0.00642537
0x990f640889409cd5ae4c17aeb5ab3ebbc77401a0fa1055ac5850eaa9f56b692fExecute Meta Tra...204767592021-10-22 5:25:351 hr 6 mins ago0x860ea4f47bf3917549cf558b0173ee0898480afeOUT 0x89aac1f5ccdd54dd8a09e5c858f19a665e4fa32b0 MATIC0.00282762
0x3583a6c8c9a46e9721335c83f3b887652aaa909c959d6bdd7616fa7ab445ededExecute Meta Tra...204763022021-10-22 5:07:451 hr 24 mins ago0x860ea4f47bf3917549cf558b0173ee0898480afeOUT 0x89aac1f5ccdd54dd8a09e5c858f19a665e4fa32b0 MATIC0.00642501
0xc228beda68cfbe4d0aff9086a18bb2bb80b6aa7bb6fe82ff3fda2418545fbdce0x41706c4e204759402021-10-22 4:52:151 hr 39 mins ago0x860ea4f47bf3917549cf558b0173ee0898480afeOUT 0x86c80a8aa58e0a4fa09a69624c31ab2a6cad56b80 MATIC0.006679446
0x7d1f2f00f43c66b1706fc3c12546ec9d23276113597772a1c7af61c1a24f5737Execute Meta Tra...204756002021-10-22 4:39:211 hr 52 mins ago0x860ea4f47bf3917549cf558b0173ee0898480afeOUT 0x89aac1f5ccdd54dd8a09e5c858f19a665e4fa32b0 MATIC0.00642501
0xd1fb024205c463c6ca229062ee606921b1ca7593b85b077f0beb95d9c7666a19Execute Meta Tra...204752022021-10-22 4:23:392 hrs 8 mins ago0x860ea4f47bf3917549cf558b0173ee0898480afeOUT 0x89aac1f5ccdd54dd8a09e5c858f19a665e4fa32b0 MATIC0.00642537
0x7df83dec5f9d593e4347b248145fd15e0b194b1b16530303de45230e1567e8c5Execute Meta Tra...204748102021-10-22 4:05:452 hrs 26 mins ago0x860ea4f47bf3917549cf558b0173ee0898480afeOUT 0x89aac1f5ccdd54dd8a09e5c858f19a665e4fa32b0 MATIC0.00642465
0xec8074500f907258baa1dc2a7bf8058ba35a3591379a3568c06f5bbaa56d50f0Execute Meta Tra...204743522021-10-22 3:47:532 hrs 44 mins ago0x860ea4f47bf3917549cf558b0173ee0898480afeOUT 0x89aac1f5ccdd54dd8a09e5c858f19a665e4fa32b0 MATIC0.006639549
0x6bb1b36d5eadc084a87548f23a75977989c2a97ea0801f0d147e404cb57f3aa4Execute Meta Tra...204739432021-10-22 3:33:512 hrs 58 mins ago0x860ea4f47bf3917549cf558b0173ee0898480afeOUT 0x89aac1f5ccdd54dd8a09e5c858f19a665e4fa32b0 MATIC0.00642465
0xfc41ea88ea815bb8eb6cb9e3d92c62c20d635820fc145067fb53f5f684fb1d31Execute Meta Tra...204735802021-10-22 3:19:133 hrs 12 mins ago0x860ea4f47bf3917549cf558b0173ee0898480afeOUT 0xeda1f66f5c765ac16b4333c53f3f83f781d01c8b0 MATIC0.03816616
0x4155e9eda2f1820ec2b2370338a94e21d0a6d37d634fdb4f5927eb7db6c84ef7Execute Meta Tra...204729612021-10-22 2:53:433 hrs 38 mins ago0x860ea4f47bf3917549cf558b0173ee0898480afeOUT 0x89aac1f5ccdd54dd8a09e5c858f19a665e4fa32b0 MATIC0.00642501
0xd30540ed4ea8378ddf945282108b7c5be7cf995e322dab87b25d1641b847011bExecute Meta Tra...204726922021-10-22 2:42:173 hrs 49 mins ago0x860ea4f47bf3917549cf558b0173ee0898480afeOUT 0x89aac1f5ccdd54dd8a09e5c858f19a665e4fa32b0 MATIC0.00642537
0x6f80f96d91d20615203b12f50aad3877498cb43f7cb798b199c2b64ca3f5b7e8Execute Meta Tra...204723812021-10-22 2:31:234 hrs ago0x860ea4f47bf3917549cf558b0173ee0898480afeOUT 0x89aac1f5ccdd54dd8a09e5c858f19a665e4fa32b0 MATIC0.007282086
0x67560319f29fa2fe15d3e9a28edd3ce2319f63666f577562792a80d59a7e42820x41706c4e204721932021-10-22 2:18:474 hrs 13 mins ago0x860ea4f47bf3917549cf558b0173ee0898480afeOUT 0x86c80a8aa58e0a4fa09a69624c31ab2a6cad56b80 MATIC0.02515869
0x476a3826c9a02fa7b1ac814bc4690a7fce1c075482407fee20364192a8ab0dddForward Meta Tx204718842021-10-22 2:06:014 hrs 26 mins ago0x860ea4f47bf3917549cf558b0173ee0898480afeOUT 0x0babda04f62c549a09ef3313fe187f29c099ff3c0 MATIC0.19475985
0xb1ec1e220db096d44bf83a8b34fe6dab721cc10100de742ab51ebefec09dd179Execute Meta Tra...204709582021-10-22 1:29:535 hrs 2 mins ago0x860ea4f47bf3917549cf558b0173ee0898480afeOUT 0x89aac1f5ccdd54dd8a09e5c858f19a665e4fa32b0 MATIC0.01927503
0x389bd3b6d696f93a2ee55c2dc7e8db7e4ffc86afce935078ccc298260ba95685Execute Meta Tra...204706762021-10-22 1:20:135 hrs 11 mins ago0x860ea4f47bf3917549cf558b0173ee0898480afeOUT 0x89aac1f5ccdd54dd8a09e5c858f19a665e4fa32b0 MATIC0.0428286
0x8e05c8b00bf05a814d0cced07920cc7ede3311566bcf485a7f8c863b5965d78bExecute Meta Tra...204704292021-10-22 1:09:355 hrs 22 mins ago0x860ea4f47bf3917549cf558b0173ee0898480afeOUT 0x89aac1f5ccdd54dd8a09e5c858f19a665e4fa32b0 MATIC0.01927287
0xdaafc82c0695ebe39dfffd8e4e67700c43214005f13f3b1a4f1fcf4df6ef4a17Execute Meta Tra...204701132021-10-22 0:56:355 hrs 35 mins ago0x860ea4f47bf3917549cf558b0173ee0898480afeOUT 0x89aac1f5ccdd54dd8a09e5c858f19a665e4fa32b0 MATIC0.00642537
0x2b17ebe6e05f7529c126924d3b2f07f6537882d47f14a7310f3f6d82efc0aba7Execute Meta Tra...204695632021-10-22 0:35:235 hrs 56 mins ago0x860ea4f47bf3917549cf558b0173ee0898480afeOUT 0x89aac1f5ccdd54dd8a09e5c858f19a665e4fa32b0 MATIC0.006639177
0x1a09d525fcb75ca4b6cc9ffdfe06468181437b5497a317936a731ee6dbd04e83Execute Meta Tra...204692842021-10-22 0:23:496 hrs 8 mins ago0x860ea4f47bf3917549cf558b0173ee0898480afeOUT 0x89aac1f5ccdd54dd8a09e5c858f19a665e4fa32b0 MATIC0.00642537
0x111b6e720f4146a37f5c5bbbc273ff3b9d337041bbc0d1b946bfb502d4190203Execute Meta Tra...204689542021-10-22 0:10:216 hrs 21 mins ago0x860ea4f47bf3917549cf558b0173ee0898480afeOUT 0x89aac1f5ccdd54dd8a09e5c858f19a665e4fa32b0 MATIC0.007496265
0x117e966606c0905dff8f6804de80b979c031501a2c23ae6f0d8ae79828d11748Execute Meta Tra...204686122021-10-21 23:56:296 hrs 35 mins ago0x860ea4f47bf3917549cf558b0173ee0898480afeOUT 0x89aac1f5ccdd54dd8a09e5c858f19a665e4fa32b0 MATIC0.00642537
0xe091a8e4e516d94e02336a5b385fe26e38b98ec32637e8da4fc91ce29c368868Execute Meta Tra...204683032021-10-21 23:45:516 hrs 46 mins ago0x860ea4f47bf3917549cf558b0173ee0898480afeOUT 0xa5f1ea7df861952863df2e8d1312f7305dabf2150 MATIC0.005198098
0x8d0384aed8a117341148ef6cad5faf58a375ff8ef16b428952223d95d76a121fExecute Meta Tra...204680082021-10-21 23:31:257 hrs ago0x860ea4f47bf3917549cf558b0173ee0898480afeOUT 0x1fdc5e69729eecf8e933c904e86faf7a8886f6610 MATIC0.011280395
[ Download CSV Export 
Parent Txn Hash Block From To Value
Loading

Contract Name:
0 MATIC

Compiler Version
0

Optimization Enabled:
0 MATIC

Other Settings:
-NA-
Block Transaction Gas Used Reward
Age Block Fee Address BC Fee Address Voting Power Jailed Incoming
Block Uncle Number Difficulty Gas Used Reward
Loading
Loading
Make sure to use the "Vote Down" button for any spammy posts, and the "Vote Up" for interesting conversations.